| time (UTC) | temp C | wind direction | speed KPH | gust KPH | rain 1hr cm | rain 24hr cm | rain mn cm | humidity % | barometer mb |
| 20260510021532 | 23 | 169 | 0.0 | 0.0 | 0.00 | 0.03 | 0.03 | 53 | 1007.6 |
| 20260510020030 | 23 | 169 | 0.0 | 0.0 | 0.00 | 0.03 | 0.03 | 52 | 1007.1 |
| 20260510014534 | 24 | 169 | 0.0 | 0.0 | 0.00 | 0.03 | 0.03 | 52 | 1006.3 |
| 20260510013027 | 24 | 169 | 0.0 | 0.0 | 0.00 | 0.03 | 0.03 | 51 | 1006.2 |
| 20260510011527 | 25 | 169 | 0.0 | 1.6 | 0.00 | 0.03 | 0.03 | 48 | 1006.4 |
| 20260510010029 | 25 | 169 | 0.0 | 0.0 | 0.00 | 0.03 | 0.03 | 47 | 1006.2 |
| 20260510004525 | 26 | 126 | 0.0 | 0.0 | 0.00 | 0.03 | 0.03 | 47 | 1006.5 |
| 20260510003025 | 26 | 126 | 0.0 | 0.0 | 0.00 | 0.03 | 0.03 | 46 | 1006.3 |
| 20260510001524 | 27 | 147 | 0.0 | 4.8 | 0.00 | 0.03 | 0.03 | 45 | 1006.5 |
| 20260510000023 | 27 | 115 | 0.0 | 9.7 | 0.00 | 0.03 | 0.03 | 44 | 1006.4 |
| 20260509234530 | 28 | 192 | 0.0 | 8.0 | 0.00 | 0.03 | 0.03 | 42 | 1006.4 |
| 20260509233022 | 29 | 103 | 1.6 | 6.4 | 0.00 | 0.03 | 0.03 | 40 | 1006.5 |
| 20260509231521 | 29 | 244 | 1.6 | 4.8 | 0.00 | 0.03 | 0.03 | 36 | 1006.6 |
| 20260509230022 | 29 | 148 | 1.6 | 8.0 | 0.00 | 0.03 | 0.03 | 35 | 1006.8 |
| 20260509224518 | 30 | 166 | 1.6 | 12.9 | 0.00 | 0.51 | 0.03 | 36 | 1007.0 |
| 20260509223016 | 29 | 174 | 1.6 | 6.4 | 0.00 | 0.51 | 0.03 | 34 | 1007.3 |
| 20260509221514 | 29 | 180 | 1.6 | 4.8 | 0.00 | 0.51 | 0.03 | 33 | 1007.4 |
| 20260509220013 | 29 | 184 | 1.6 | 4.8 | 0.00 | 0.51 | 0.03 | 34 | 1007.6 |
| 20260509214515 | 29 | 180 | 0.0 | 4.8 | 0.00 | 0.51 | 0.03 | 37 | 1007.5 |
| 20260509213012 | 29 | 181 | 0.0 | 6.4 | 0.00 | 0.51 | 0.03 | 34 | 1007.5 |
| 20260509211509 | 29 | 205 | 1.6 | 4.8 | 0.00 | 0.51 | 0.03 | 36 | 1007.8 |
| 20260509210016 | 30 | 207 | 0.0 | 4.8 | 0.00 | 0.51 | 0.03 | 35 | 1008.0 |
| 20260509204506 | 30 | 236 | 0.0 | 6.4 | 0.00 | 0.51 | 0.03 | 36 | 1008.1 |
| 20260509203007 | 30 | 158 | 0.0 | 4.8 | 0.00 | 0.51 | 0.03 | 38 | 1008.2 |
| 20260509201502 | 30 | 141 | 0.0 | 3.2 | 0.00 | 0.51 | 0.03 | 40 | 1008.4 |
| 20260509200002 | 30 | 141 | 1.6 | 6.4 | 0.00 | 0.51 | 0.03 | 34 | 1008.6 |
| 20260509194601 | 30 | 226 | 0.0 | 3.2 | 0.00 | 0.51 | 0.03 | 34 | 1008.7 |
| 20260509193113 | 29 | 227 | 1.6 | 8.0 | 0.00 | 0.51 | 0.03 | 36 | 1009.0 |
| 20260509191554 | 28 | 265 | 1.6 | 3.2 | 0.00 | 0.51 | 0.03 | 32 | 1009.1 |
| 20260509190054 | 28 | 266 | 1.6 | 6.4 | 0.00 | 0.51 | 0.03 | 36 | 1009.3 |
| 20260509184604 | 28 | 308 | 0.0 | 6.4 | 0.00 | 0.51 | 0.03 | 38 | 1009.5 |
| 20260509183049 | 28 | 302 | 0.0 | 4.8 | 0.00 | 0.51 | 0.03 | 36 | 1009.6 |
| 20260509181548 | 28 | 309 | 0.0 | 6.4 | 0.00 | 0.51 | 0.03 | 43 | 1009.8 |
| 20260509180047 | 28 | 259 | 0.0 | 6.4 | 0.00 | 0.51 | 0.03 | 43 | 1009.9 |
| 20260509174544 | 27 | 273 | 0.0 | 4.8 | 0.00 | 0.51 | 0.03 | 43 | 1010.4 |
| 20260509173049 | 27 | 226 | 0.0 | 6.4 | 0.00 | 0.51 | 0.03 | 43 | 1010.4 |
| 20260509171544 | 26 | 226 | 0.0 | 4.8 | 0.00 | 0.51 | 0.03 | 49 | 1010.6 |
| 20260509170033 | 25 | 232 | 1.6 | 6.4 | 0.00 | 0.51 | 0.03 | 58 | 1010.8 |
| 20260509164529 | 25 | 232 | 0.0 | 4.8 | 0.00 | 0.51 | 0.03 | 65 | 1010.7 |
| 20260509163024 | 23 | 209 | 0.0 | 6.4 | 0.00 | 0.51 | 0.03 | 71 | 1011.0 |
| 20260509161526 | 22 | 159 | 0.0 | 1.6 | 0.00 | 0.51 | 0.03 | 69 | 1011.1 |
| 20260509160019 | 21 | 152 | 0.0 | 3.2 | 0.00 | 0.51 | 0.03 | 76 | 1011.0 |
| 20260509154519 | 20 | 175 | 0.0 | 0.0 | 0.00 | 0.51 | 0.03 | 80 | 1011.0 |
| 20260509153012 | 19 | 105 | 0.0 | 0.0 | 0.00 | 0.51 | 0.03 | 83 | 1010.8 |
| 20260509151510 | 19 | 105 | 0.0 | 0.0 | 0.00 | 0.51 | 0.03 | 84 | 1010.9 |
| 20260509150123 | 18 | 105 | 0.0 | 0.0 | 0.00 | 0.51 | 0.03 | 96 | 1010.7 |
| 20260509144707 | 17 | 105 | 0.0 | 0.0 | 0.00 | 0.51 | 0.03 | 97 | 1010.5 |
| 20260509143052 | 16 | 105 | 0.0 | 0.0 | 0.00 | 0.51 | 0.03 | 97 | 1010.7 |
| 20260509141549 | 15 | 105 | 0.0 | 0.0 | 0.00 | 0.51 | 0.03 | 97 | 1011.0 |
| 20260509140046 | 15 | 107 | 0.0 | 0.0 | 0.00 | 0.51 | 0.03 | 96 | 1010.8 |
| 20260509134548 | 15 | 107 | 0.0 | 0.0 | 0.00 | 0.51 | 0.03 | 97 | 1010.7 |
| 20260509133047 | 14 | 107 | 0.0 | 0.0 | 0.00 | 0.51 | 0.03 | 96 | 1010.5 |
| 20260509131543 | 13 | 107 | 0.0 | 0.0 | 0.00 | 0.51 | 0.03 | 96 | 1010.5 |
| 20260509130040 | 13 | 107 | 0.0 | 0.0 | 0.00 | 0.51 | 0.03 | 97 | 1010.2 |
| 20260509124557 | 12 | 107 | 0.0 | 0.0 | 0.03 | 0.51 | 0.03 | 96 | 1010.0 |
| 20260509123039 | 12 | 107 | 0.0 | 0.0 | 0.03 | 0.51 | 0.03 | 96 | 1009.9 |
| 20260509121543 | 12 | 108 | 0.0 | 0.0 | 0.03 | 0.51 | 0.03 | 95 | 1009.8 |
| 20260509120039 | 12 | 108 | 0.0 | 0.0 | 0.03 | 0.51 | 0.03 | 95 | 1009.6 |
| 20260509114535 | 12 | 108 | 0.0 | 0.0 | 0.00 | 0.48 | 0.00 | 95 | 1009.5 |
| 20260509113035 | 12 | 108 | 0.0 | 0.0 | 0.00 | 0.48 | 0.00 | 95 | 1009.2 |
| 20260509111533 | 12 | 108 | 0.0 | 0.0 | 0.00 | 0.48 | 0.00 | 95 | 1009.1 |
| 20260509110032 | 12 | 108 | 0.0 | 0.0 | 0.00 | 0.48 | 0.00 | 95 | 1009.1 |
| 20260509104536 | 12 | 108 | 0.0 | 0.0 | 0.00 | 0.48 | 0.00 | 95 | 1009.1 |
| 20260509103030 | 12 | 108 | 0.0 | 0.0 | 0.00 | 0.48 | 0.00 | 95 | 1009.3 |
| 20260509101529 | 12 | 108 | 0.0 | 0.0 | 0.00 | 0.48 | 0.00 | 94 | 1009.3 |
| 20260509100036 | 12 | 108 | 0.0 | 0.0 | 0.00 | 0.48 | 0.00 | 94 | 1009.4 |
| 20260509094525 | 12 | 108 | 0.0 | 0.0 | 0.00 | 0.48 | 0.00 | 94 | 1009.8 |
| 20260509093023 | 12 | 108 | 0.0 | 0.0 | 0.00 | 0.48 | 0.00 | 94 | 1009.8 |
| 20260509091521 | 13 | 108 | 0.0 | 0.0 | 0.00 | 0.48 | 0.00 | 94 | 1009.6 |
| 20260509090018 | 13 | 108 | 0.0 | 0.0 | 0.00 | 0.48 | 0.00 | 94 | 1009.7 |
| 20260509084518 | 13 | 108 | 0.0 | 0.0 | 0.00 | 0.48 | 0.00 | 94 | 1009.4 |
| 20260509083019 | 13 | 108 | 0.0 | 0.0 | 0.00 | 0.48 | 0.00 | 94 | 1009.5 |
| 20260509081521 | 13 | 108 | 0.0 | 0.0 | 0.00 | 0.48 | 0.00 | 93 | 1009.6 |
| 20260509080014 | 13 | 108 | 0.0 | 0.0 | 0.00 | 0.48 | 0.00 | 93 | 1009.8 |
| 20260509074510 | 14 | 108 | 0.0 | 0.0 | 0.00 | 0.48 | 0.00 | 93 | 1010.0 |
| 20260509073009 | 14 | 108 | 0.0 | 0.0 | 0.00 | 0.48 | 0.00 | 93 | 1010.2 |
| 20260509071513 | 14 | 108 | 0.0 | 0.0 | 0.00 | 0.48 | 0.00 | 93 | 1010.2 |
| 20260509070006 | 15 | 108 | 0.0 | 0.0 | 0.00 | 0.48 | 0.00 | 93 | 1010.1 |
| 20260509064505 | 15 | 108 | 0.0 | 0.0 | 0.00 | 0.48 | 0.00 | 92 | 1009.9 |
| 20260509063003 | 15 | 108 | 0.0 | 0.0 | 0.00 | 0.48 | 0.00 | 92 | 1010.1 |
| 20260509061502 | 15 | 108 | 0.0 | 0.0 | 0.00 | 0.48 | 0.00 | 92 | 1010.2 |
| 20260509060108 | 15 | 108 | 0.0 | 0.0 | 0.00 | 0.48 | 0.00 | 92 | 1010.2 |
| 20260509054613 | 15 | 108 | 0.0 | 0.0 | 0.00 | 0.48 | 0.00 | 91 | 1010.1 |
| 20260509053104 | 16 | 108 | 0.0 | 0.0 | 0.00 | 0.48 | 0.00 | 91 | 1010.1 |
| 20260509051558 | 16 | 108 | 0.0 | 0.0 | 0.00 | 0.48 | 0.00 | 91 | 1010.1 |
| 20260509050057 | 16 | 108 | 0.0 | 0.0 | 0.00 | 0.48 | 0.00 | 91 | 1010.0 |
| 20260509044552 | 16 | 108 | 0.0 | 0.0 | 0.00 | 0.48 | 0.48 | 92 | 1010.1 |
| 20260509043050 | 16 | 108 | 0.0 | 0.0 | 0.00 | 0.48 | 0.48 | 93 | 1010.2 |
| 20260509041550 | 16 | 108 | 0.0 | 0.0 | 0.00 | 0.48 | 0.48 | 93 | 1010.2 |
| 20260509040054 | 16 | 108 | 0.0 | 0.0 | 0.00 | 0.48 | 0.48 | 93 | 1009.9 |
| 20260509034559 | 16 | 108 | 0.0 | 0.0 | 0.00 | 0.48 | 0.48 | 93 | 1009.6 |
| 20260509033049 | 16 | 108 | 0.0 | 0.0 | 0.00 | 0.48 | 0.48 | 94 | 1009.3 |
| 20260509031557 | 16 | 108 | 0.0 | 0.0 | 0.00 | 0.48 | 0.48 | 93 | 1008.9 |
| 20260509030048 | 16 | 108 | 0.0 | 0.0 | 0.00 | 0.48 | 0.48 | 93 | 1008.4 |
| 20260509024547 | 17 | 108 | 0.0 | 0.0 | 0.00 | 0.48 | 0.48 | 92 | 1008.1 |
| 20260509023055 | 17 | 108 | 0.0 | 0.0 | 0.00 | 0.48 | 0.48 | 93 | 1008.1 |